sat.trackr.live / text

‹ back to catalog

STARLINK-32513

NORAD 61964 · 2024-210F

PAYLOAD ACTIVE UNKNOWN

§ Identity

Operator
Country
US
Launch date
2024-11-14
Launch site
AFETR
Launch vehicle
Mass (kg)
RCS (m²)

Purposes: comms

External: N2YO · Heavens-Above · Gunter

§ Orbital elements

Epoch: 2026-09-21T22:54:49.955040Z

Period
94.27 min
Inclination
43.0026°
Eccentricity
0.0000332
Mean motion
15.27591356 rev/d
Perigee alt
482.8 km
Apogee alt
483.2 km
Semi-major
6,861.2 km
B*
5.2360e-4
RAAN
136.9330°
Arg perigee
274.4067°
Mean anomaly
85.6747°
Rev number
10,509

§ Raw data

STARLINK-325131 61964U 24210F   26264.95474485  .00014179  00000+0  52360-3 0  99912 61964  43.0026 136.9330 0000332 274.4067  85.6747 15.27591356105092

JSON: /api/v1/satellites/61964 · /tle

For live sub-satellite position, see the globe view (requires WebGL).

§ Visibility from observer

Set your observer location to see the next 7 days of passes ≥ 10°. The values pass through the URL so the page stays shareable.

No JS? Fill the form by hand. The geolocation button needs JavaScript.